This is the latest recevied weather packets stored in our database for station/object WX4SGA. If no packets are shown the sender has not sent any weather packets the latest 10 day(s).
| Time | Temp. | Humidity | Pressure | Rain* | Wind** | Luminosity | Snow |
|---|---|---|---|---|---|---|---|
| 1778256126 | 22.78° C | 65% | 1017.3 hPa | 0 mm | - | 549 W/m² | - |
| 1778255823 | 22.78° C | 66% | 1017.3 hPa | 0 mm | - | 360 W/m² | - |
| 1778255519 | 23.89° C | 65% | 1017.3 hPa | 0 mm | - | 480 W/m² | - |
| 1778255217 | 23.33° C | 63% | 1017.6 hPa | 0 mm | - | 502 W/m² | - |
| 1778254913 | 22.78° C | 66% | 1017.6 hPa | 0 mm | - | 580 W/m² | - |
| 1778254610 | 22.22° C | 68% | 1017.3 hPa | 0 mm | - | 584 W/m² | - |
| 1778254307 | 21.67° C | 68% | 1017.3 hPa | 0 mm | - | 469 W/m² | - |
| 1778254004 | 21.67° C | 70% | 1017.3 hPa | 0 mm | - | 369 W/m² | - |
| 1778253699 | 21.67° C | 69% | 1017.3 hPa | 0 mm | - | 387 W/m² | - |
| 1778253396 | 21.67° C | 71% | 1017.3 hPa | 0 mm | - | 552 W/m² | - |
| 1778253093 | 21.67° C | 71% | 1017.6 hPa | 0 mm | - | 448 W/m² | - |
| 1778252790 | 21.67° C | 70% | 1017.6 hPa | 0 mm | - | 223 W/m² | - |
| 1778252487 | 21.11° C | 71% | 1017.3 hPa | 0 mm | - | 226 W/m² | - |
| 1778252182 | 21.11° C | 69% | 1017.3 hPa | 0 mm | - | 237 W/m² | - |
| 1778251879 | 21.11° C | 72% | 1017.6 hPa | 0 mm | - | 247 W/m² | - |
| 1778251577 | 21.67° C | 71% | 1017.6 hPa | 0 mm | - | 250 W/m² | - |
| 1778251274 | 21.11° C | 71% | 1017.6 hPa | 0 mm | - | 208 W/m² | - |
| 1778250972 | 21.11° C | 72% | 1017.3 hPa | 0 mm | - | 282 W/m² | - |
| 1778250668 | 21.11° C | 72% | 1017.3 hPa | 0 mm | - | 211 W/m² | - |
| 1778250365 | 21.11° C | 72% | 1017.3 hPa | 0 mm | - | 213 W/m² | - |
| 1778250062 | 21.11° C | 72% | 1017.3 hPa | 0 mm | - | 201 W/m² | - |
| 1778249758 | 20.56° C | 72% | 1017.3 hPa | 0 mm | - | 192 W/m² | - |
| 1778249456 | 20.56° C | 71% | 1017.3 hPa | 0 mm | - | 176 W/m² | - |
| 1778249153 | 20.56° C | 74% | 1017.3 hPa | 0 mm | - | 173 W/m² | - |
| 1778248849 | 21.11° C | 71% | 1017.3 hPa | 0 mm | - | 220 W/m² | - |
* Rain latest hour (hover to see other rain measurements)
** Current wind speed in m/s (hover to see current wind gust speed)